Flag for Japan Weather past 2 weeks in Kawasaki, Japan

Now
68 °F

Clear.


Feels Like: 68 °F
Forecast: 64 / 69 °F
Wind: 16 mph from South

Location: Tokyo International Airport

Current Time: May 23, 2015 at 9:54:08 PM

Latest Report: May 23, 2015 at 9:30 PM


Visibility: 10 mi

Pressure: 29.83 "Hg

Humidity: 73%

Dew point: 59 °F

Location of KawasakiLocation

Historic Weather in Kawasaki — Graph

°F

Kawasaki temperature yesterday

Maximum temperature yesterday: 73 °F (at 11:30 AM)
Minimum temperature yesterday: 63 °F (at 4:00 AM)
Average temperature yesterday: 69 °F

Past Weeks' High & Low Weather Summary

 TemperatureHumidityPressure
High81 °F (May 17, 2:00 PM)94% (May 12, 8:48 PM)30.21 "Hg (May 12, 8:48 PM)
Low55 °F (May 11, 5:00 AM)21% (May 11, 1:00 PM)29.42 "Hg (May 12, 10:46 PM)
Average69 °F68%29.79 "Hg
* Reported May 8 8:00 PM — May 23 8:30 PM, Kawasaki, Weather by CustomWeather, © 2015

Note: Actual official high and low records may vary slightly from our data, if they occured in-between our weather recording intervals... More about our weather records

Advertising

Kawasaki weather history for previous 24 hours

 ConditionsComfort  
Time TempWeatherWind HumidityBarometerVisibility
8:30 PM
Sat, May 23
70 °FClear.16 mph69%29.83 "Hg10 mi
8:00 PM70 °FClear.17 mph69%29.83 "Hg10 mi
7:30 PM68 °FClear.16 mph78%29.83 "Hg10 mi
7:00 PM68 °FClear.14 mph78%29.83 "Hg10 mi
6:30 PM68 °FSunny.20 mph78%29.83 "Hg10 mi
6:00 PM70 °FSunny.20 mph73%29.83 "Hg10 mi
5:30 PM70 °FSunny.20 mph73%29.83 "Hg10 mi
5:00 PM72 °FSunny.16 mph65%29.83 "Hg10 mi
4:30 PM73 °FSunny.17 mph50%29.83 "Hg10 mi
4:00 PM72 °FPartly sunny.17 mph65%29.83 "HgN/A
3:30 PM72 °FPartly sunny.21 mph69%29.86 "HgN/A
2:30 PM75 °FPartly sunny.20 mph57%29.86 "HgN/A
2:00 PM75 °FPartly sunny.18 mph57%29.86 "HgN/A
1:30 PM75 °FPartly sunny.20 mph57%29.86 "HgN/A
1:00 PM75 °FPartly sunny.20 mph50%29.86 "HgN/A
12:30 PM75 °FPartly sunny.15 mph50%29.86 "HgN/A
12:00 PM75 °FPartly sunny.13 mph50%29.89 "HgN/A
11:30 AM75 °FPartly sunny.12 mph50%29.89 "HgN/A
11:00 AM73 °FSunny.12 mph53%29.92 "Hg10 mi
10:30 AM73 °FSunny.8 mph57%29.92 "Hg10 mi
10:00 AM72 °FSunny.9 mph65%29.92 "Hg10 mi
9:30 AM72 °FSunny.9 mph65%29.92 "Hg10 mi
9:00 AM70 °FSunny.8 mph64%29.92 "Hg10 mi
8:30 AM70 °FSunny.6 mph64%29.92 "Hg10 mi
8:00 AM70 °FSunny.3 mph64%29.92 "Hg10 mi
7:30 AM68 °FPartly sunny.3 mph64%29.92 "HgN/A
7:00 AM68 °FSunny.2 mph64%29.92 "Hg10 mi
6:00 AM66 °FSunny.5 mph68%29.92 "Hg10 mi
5:30 AM64 °FSunny.5 mph73%29.92 "Hg10 mi
5:00 AM63 °FSunny.6 mph77%29.92 "Hg10 mi
4:30 AM63 °FClear.6 mph77%29.92 "Hg10 mi
4:00 AM64 °FClear.6 mph73%29.92 "Hg10 mi
3:30 AM64 °FClear.6 mph73%29.92 "Hg10 mi
3:00 AM64 °FClear.6 mph73%29.89 "Hg10 mi
2:30 AM64 °FClear.8 mph73%29.89 "Hg10 mi
2:00 AM66 °FClear.7 mph68%29.89 "Hg10 mi
1:30 AM66 °FClear.8 mph64%29.89 "Hg10 mi
1:00 AM68 °FClear.9 mph64%29.89 "Hg10 mi
12:30 AM68 °FClear.13 mph64%29.89 "Hg10 mi
12:00 AM68 °FClear.15 mph64%29.89 "Hg10 mi
11:30 PM
Fri, May 22
68 °FClear.13 mph64%29.89 "Hg10 mi
11:00 PM68 °FClear.15 mph64%29.89 "Hg10 mi
10:30 PM68 °FClear.16 mph64%29.89 "Hg10 mi
10:00 PM68 °FClear.15 mph64%29.92 "Hg10 mi
9:30 PM68 °FClear.14 mph64%29.92 "Hg10 mi
9:00 PM68 °FClear.18 mph64%29.89 "Hg10 mi
Weather by CustomWeather, © 2015

See weather overviewHow to use our weather pages